Regional Weather Roundup
Issued by NWS Sterling, VA

Home | Current Version | Previous Version | Text Only | Print | Product List | Glossary On
Versions: 1 2 3 4 5 6 7 8 9 10 11 12 13 14 15 16 17 18 19 20 21 22 23 24 25 26 27 28 29 30 31 32 33 34 35 36 37 38 39 40 41 42 43 44 45 46 47 48 49 50
000
ASUS41 KLWX 010610
RWRLWX

REGIONAL WEATHER ROUNDUP
NATIONAL WEATHER SERVICE BALTIMORE MD/WASHINGTON DC
200 AM EDT SUN MAY 01 2016

Note: "FAIR" indicates few or no clouds below 12,000 feet
with no significant weather and/or obstructions to visibility.
 TC=TEMPERATURE CELSIUS

 * =Non NWS site. Station does not report precipitation (e.g. rain,
    snow, etc.), thunder, or fog.

DCZ001-MDZ009-015-VAZ040>042-051-053>054-010700-
WASHINGTON METRO

CITY           SKY/WX    TMP DP  RH WIND       PRES   REMARKS
WASHINGTON NAT LGT RAIN  54  51  90 SE10      30.18F
DULLES         LGT RAIN  52  51  97 S6        30.15F
ANDREWS AFB    DRIZZLE   51  48  90 SE8       30.16F
FT BELVOIR     LGT RAIN  53  51  93 SE6       30.16F
QUANTICO       LGT RAIN  55  51  86 S12       30.18F
COLLEGE PARK*  CLOUDY    52  48  87 SE5       30.17F
LEESBURG*      LGT RAIN  54  54 100 S10       30.16S
MANASSAS*      CLOUDY    54  54 100 S5        30.17F
GAITHERSBURG*  CLOUDY    52  46  82 SE8       30.19F

$$

MDZ006>007-011-014-010700-
BALTIMORE METRO

CITY           SKY/WX    TMP DP  RH WIND       PRES   REMARKS
BWI AIRPORT    LGT RAIN  51  45  79 SE6       30.17F
MD SCIENCE CTR   N/A     53  44  71 MISG      30.17F
MARTIN STATE   RAIN      52  46  82 E9        30.19F
ANNAPOLIS      CLOUDY    53  44  71 MISG      30.18F
FORT MEADE*    CLOUDY    48  46  93 SE6       30.20F

$$

MDZ012-015-019>023-010700-
MARYLAND EASTERN SHORE

CITY           SKY/WX    TMP DP  RH WIND       PRES   REMARKS
OCEAN CITY     CLOUDY    51  47  86 E3        30.20F
SALISBURY      CLOUDY    50  47  89 CALM      30.20F
CAMBRIDGE*     CLOUDY    48  45  87 CALM      30.19F
EASTON*        CLOUDY   N/A N/A N/A SE3       30.22F

$$

MDZ017>025-010700-
SOUTHERN MARYLAND

CITY           SKY/WX    TMP DP  RH WIND       PRES   REMARKS
PATUXENT RIVER CLOUDY    54  47  77 SE9       30.18F
ST INIGOES       N/A    N/A N/A N/A MISG        N/A
LEONARDTOWN*   CLOUDY    52  46  82 E3        30.18F

$$

MDZ003>005-010700-
NORTH CENTRAL MARYLAND

CITY           SKY/WX    TMP DP  RH WIND       PRES   REMARKS
FREDERICK*     DRIZZLE   50  50 100 SE5       30.18S
HAGERSTOWN APT LGT RAIN  51  48  89 SE12      30.11F FOG
WESTMINSTER*   RAIN      50  46  87 SE9       30.15R

$$

MDZ501>502-010700-
WESTERN MARYLAND

CITY           SKY/WX    TMP DP  RH WIND       PRES   REMARKS
OAKLAND*       FOG       46  46 100 SE12      30.03F VSB 1
CUMBERLAND*    CLOUDY    52  52 100 S5        30.10F

$$

VAZ025>031-010700-
SHENANDOAH VALLEY

CITY           SKY/WX    TMP DP  RH WIND       PRES   REMARKS
WINCHESTER*    DRIZZLE   52  50  93 SE7       30.11F
FRONT ROYAL*   CLOUDY    52  50  93 CALM      30.11S
LURAY*         RAIN      52  52 100 S5        30.12F
NEW MARKET*    CLOUDY    53  53  99 CALM      30.11F
STAUNTON*      RAIN      55  55 100 S6        30.15F
WAYNESBORO*    CLOUDY    52  51  97 MISG      30.13F

$$

WVZ021-048>050-054>055-010700-
EASTERN WEST VIRGINIA PANHANDLE

CITY           SKY/WX    TMP DP  RH WIND       PRES   REMARKS
MARTINSBURG    LGT RAIN  51  49  92 S9        30.12F FOG
PETERSBURG*    RAIN      56  54  94 CALM      30.07F

$$

VAZ036>039-050-010700-
CENTRAL FOOTHILLS

CITY           SKY/WX    TMP DP  RH WIND       PRES   REMARKS
CHARLOTTESVILL LGT RAIN  54  52  93 S5        30.15F FOG
CULPEPER*      RAIN      53  53  99 CALM      30.17S
ORANGE*        LGT RAIN  54  54 100 CALM      30.17F
GORDONSVILLE*  CLOUDY    53  53  99 CALM      30.15F
WARRENTON*     DRIZZLE   53  48  84 SE3       30.16S

$$

VAZ055>057-010700-
NORTH AND CENTRAL PIEDMONT

CITY           SKY/WX    TMP DP  RH WIND       PRES   REMARKS
FREDERICKSBRG* DRIZZLE   54  54 100 CALM      30.16F
STAFFORD*      DRIZZLE   52  50  95 CALM      30.20F

$$

NCZ024-NYZ072-PAZ021-071-VAZ022-071-010700-
OTHER REGIONAL OBSERVATIONS

CITY           SKY/WX    TMP DP  RH WIND       PRES   REMARKS
NEW YORK CITY  PTCLDY    50  37  61 MISG      30.24F
PHILADELPHIA   LGT RAIN  51  37  58 CALM      30.21F
PITTSBURGH     LGT RAIN  54  52  93 SE6       29.95F
ROANOKE        LGT RAIN  54  53  97 SE5       30.15F
RICHMOND       CLOUDY    53  50  89 SE3       30.15F
RALEIGH        CLOUDY    60  55  83 SE7       30.13S

$$

ANZ530>537-010700-
MARINE OBSERVATIONS

STATION/POSITION TIME  TEMP    WIND        PRES
                       AIR SEA DIR/SP/G
                 (UTC) (F)     (DEG/KT/KT) (MB)
THOMAS PT LIGHT  0600   53 57  150/ 13/ 14 1023.1F
BALT KEY BRIDGE  0500   54     130/ 11/ 15 1022.3F
COVE POINT       0500   52     160/ 12/ 14 1023.1S
LEWISETTA        0500   54 60  150/ 10/ 12 1021.6F
SOLOMONS ISLAND  0500   54 59  120/  9/ 12   N/A
PINEY POINT      0500          160/ 15/ 16   N/A

$$




USA.gov is the U.S. government's official web portal to all federal, state and local government web resources and services.